Location: Blangy-Tronville
(49.8790°N, 2.4226°E)
Time: 02:02:03
(UTC+00:00)

SMAP - Pass Details

Date: 18 November 2025
Orbit: 681 x 683 km, 98.1° (Epoch: 04 December)

Event Time Altitude Azimuth Distance (km) Brightness Sun altitude
Rises 16:35:09 0° 149° (SSE) 3,035 6.3 -5.5°
Reaches altitude 10° 16:37:25 10° 144° (SE) 2,124 5.5 -5.8°
Maximum altitude 16:41:55 51° 69° (ENE) 867 3.2 -6.5°
Drops below altitude 10° 16:46:26 10° 355° (N) 2,138 5.5 -7.2°
Sets 16:48:43 0° 350° (N) 3,058 6.3 -7.5°
